Stündliche Wetter 2-e Itkulovo

Heute, 5 März, Freitag

Zeit Temperatur Niederschläge Wind Luftdruck Luftfeuchtigkeit
00:00 -10°C° 0.3 mm 9 m/S 702 mmHg 91%
01:00 -9°C° 0.3 mm 10 m/S 701 mmHg 91%
02:00 -9°C° 0.5 mm 10 m/S 702 mmHg 91%
03:00 -9°C° 0.5 mm 10 m/S 702 mmHg 91%
04:00 -9°C° 0 mm 11 m/S 702 mmHg 91%
05:00 -9°C° 0.2 mm 10 m/S 702 mmHg 90%
06:00 -9°C° 0.2 mm 10 m/S 702 mmHg 89%
07:00 -10°C° 0.2 mm 9 m/S 703 mmHg 88%
08:00 -9°C° 0.1 mm 9 m/S 703 mmHg 89%
09:00 -9°C° 0.1 mm 9 m/S 703 mmHg 90%
10:00 -8°C° 0 mm 9 m/S 703 mmHg 90%
11:00 -8°C° 0.3 mm 9 m/S 703 mmHg 91%
12:00 -8°C° 0.3 mm 9 m/S 702 mmHg 92%
13:00 -7°C° 0.3 mm 10 m/S 702 mmHg 92%
14:00 -7°C° 0.7 mm 10 m/S 702 mmHg 92%
15:00 -7°C° 0.7 mm 10 m/S 702 mmHg 93%
16:00 -5°C° 0.7 mm 10 m/S 702 mmHg 93%
17:00 -5°C° 0.6 mm 10 m/S 702 mmHg 93%
18:00 -5°C° 0.6 mm 10 m/S 702 mmHg 93%
19:00 -5°C° 0.6 mm 9 m/S 702 mmHg 93%
20:00 -6°C° 0.2 mm 8 m/S 703 mmHg 92%
21:00 -7°C° 0.2 mm 7 m/S 704 mmHg 92%
22:00 -6°C° 0.2 mm 6 m/S 705 mmHg 92%
23:00 -8°C° 0.1 mm 5 m/S 705 mmHg 93%

Morgen, 6 März, Samstag

Zeit Temperatur Niederschläge Wind Luftdruck Luftfeuchtigkeit
00:00 -9°C° 0.1 mm 3 m/S 705 mmHg 94%
01:00 -10°C° 0.1 mm 2 m/S 705 mmHg 95%
02:00 -12°C° 0 mm 2 m/S 705 mmHg 95%
03:00 -12°C° 0 mm 2 m/S 706 mmHg 95%
04:00 -13°C° 0 mm 2 m/S 706 mmHg 95%
05:00 -14°C° 0 mm 2 m/S 707 mmHg 96%
06:00 -15°C° 0 mm 2 m/S 707 mmHg 96%
07:00 -16°C° 0 mm 2 m/S 707 mmHg 96%
08:00 -14°C° 0 mm 2 m/S 708 mmHg 93%
09:00 -12°C° 0 mm 2 m/S 708 mmHg 89%
10:00 -10°C° 0 mm 3 m/S 709 mmHg 86%
11:00 -9°C° 0 mm 3 m/S 709 mmHg 82%
12:00 -8°C° 0 mm 3 m/S 709 mmHg 79%
13:00 -8°C° 0 mm 4 m/S 710 mmHg 76%
14:00 -8°C° 0 mm 4 m/S 709 mmHg 77%
15:00 -9°C° 0 mm 4 m/S 709 mmHg 79%
16:00 -8°C° 0 mm 3 m/S 709 mmHg 81%
17:00 -10°C° 0 mm 3 m/S 709 mmHg 85%
18:00 -12°C° 0 mm 2 m/S 709 mmHg 89%
19:00 -13°C° 0 mm 2 m/S 709 mmHg 93%
20:00 -13°C° 0 mm 2 m/S 709 mmHg 93%
21:00 -12°C° 0 mm 1 m/S 709 mmHg 93%
22:00 -12°C° 0 mm 1 m/S 709 mmHg 93%
23:00 -12°C° 0 mm 1 m/S 708 mmHg 92%

übermorgen, 7 März, Sonntag

Zeit Temperatur Niederschläge Wind Luftdruck Luftfeuchtigkeit
00:00 -12°C° 0 mm 1 m/S 707 mmHg 91%
01:00 -11°C° 0 mm 0 m/S 707 mmHg 89%
02:00 -11°C° 0.2 mm 1 m/S 707 mmHg 92%
03:00 -11°C° 0.2 mm 1 m/S 706 mmHg 94%
04:00 -10°C° 0.2 mm 1 m/S 706 mmHg 96%
05:00 -10°C° 0.5 mm 1 m/S 705 mmHg 96%
06:00 -12°C° 0.5 mm 2 m/S 704 mmHg 96%
07:00 -12°C° 0.5 mm 2 m/S 703 mmHg 95%
08:00 -12°C° 0.9 mm 3 m/S 703 mmHg 95%
09:00 -12°C° 0.9 mm 3 m/S 702 mmHg 95%
10:00 -12°C° 0.9 mm 3 m/S 702 mmHg 94%
11:00 -10°C° 0.8 mm 3 m/S 701 mmHg 94%
12:00 -10°C° 0.8 mm 3 m/S 701 mmHg 94%
13:00 -9°C° 0.8 mm 3 m/S 701 mmHg 94%
14:00 -10°C° 0.7 mm 4 m/S 701 mmHg 94%
15:00 -10°C° 0.7 mm 4 m/S 701 mmHg 93%
16:00 -10°C° 0.7 mm 4 m/S 702 mmHg 93%
17:00 -12°C° 0.1 mm 4 m/S 702 mmHg 92%
18:00 -15°C° 0.1 mm 5 m/S 703 mmHg 92%
19:00 -17°C° 0.1 mm 5 m/S 704 mmHg 92%
20:00 -18°C° 0 mm 4 m/S 704 mmHg 92%
21:00 -20°C° 0 mm 4 m/S 705 mmHg 92%
22:00 -23°C° 0 mm 4 m/S 705 mmHg 93%
23:00 -22°C° 0 mm 3 m/S 705 mmHg 95%

8 März, Montag

Zeit Temperatur Niederschläge Wind Luftdruck Luftfeuchtigkeit
00:00 -23°C° 0 mm 3 m/S 706 mmHg 96%
01:00 -24°C° 0 mm 3 m/S 706 mmHg 98%
02:00 -24°C° 0 mm 3 m/S 706 mmHg 99%
03:00 -23°C° 0 mm 3 m/S 706 mmHg 99%
04:00 -23°C° 0 mm 3 m/S 707 mmHg 99%
05:00 -22°C° 0 mm 3 m/S 707 mmHg 98%
06:00 -21°C° 0 mm 3 m/S 707 mmHg 97%
07:00 -19°C° 0 mm 3 m/S 707 mmHg 96%
08:00 -18°C° 0 mm 4 m/S 707 mmHg 94%
09:00 -17°C° 0 mm 5 m/S 706 mmHg 92%
10:00 -15°C° 0 mm 6 m/S 706 mmHg 90%
11:00 -14°C° 0.1 mm 7 m/S 706 mmHg 90%
12:00 -13°C° 0.1 mm 7 m/S 706 mmHg 90%
13:00 -12°C° 0.1 mm 8 m/S 706 mmHg 89%
14:00 -11°C° 0.2 mm 8 m/S 706 mmHg 89%
15:00 -11°C° 0.2 mm 8 m/S 706 mmHg 88%
16:00 -10°C° 0.2 mm 8 m/S 706 mmHg 87%
17:00 -11°C° 0.2 mm 7 m/S 706 mmHg 89%
18:00 -10°C° 0.2 mm 6 m/S 706 mmHg 91%
19:00 -11°C° 0.2 mm 5 m/S 707 mmHg 92%
20:00 -11°C° 0.1 mm 5 m/S 707 mmHg 93%
21:00 -11°C° 0.1 mm 5 m/S 707 mmHg 93%
22:00 -10°C° 0.1 mm 4 m/S 707 mmHg 94%
23:00 -11°C° 0.2 mm 5 m/S 706 mmHg 94%

9 März, Dienstag

Zeit Temperatur Niederschläge Wind Luftdruck Luftfeuchtigkeit
00:00 -10°C° 0.2 mm 6 m/S 705 mmHg 93%
01:00 -11°C° 0.2 mm 7 m/S 705 mmHg 93%
02:00 -10°C° 0.3 mm 8 m/S 704 mmHg 93%
03:00 -10°C° 0.3 mm 9 m/S 703 mmHg 92%
04:00 -10°C° 0.3 mm 10 m/S 702 mmHg 91%
05:00 -13°C° 0.3 mm 10 m/S 703 mmHg 85%
06:00 -14°C° 0.3 mm 9 m/S 703 mmHg 79%
07:00 -16°C° 0.3 mm 9 m/S 703 mmHg 73%
08:00 -16°C° 0 mm 9 m/S 704 mmHg 76%
09:00 -16°C° 0 mm 9 m/S 705 mmHg 80%
10:00 -16°C° 0 mm 9 m/S 706 mmHg 83%
11:00 -15°C° 0 mm 9 m/S 706 mmHg 82%
12:00 -14°C° 0 mm 9 m/S 707 mmHg 81%
13:00 -13°C° 0 mm 8 m/S 708 mmHg 79%
14:00 -13°C° 0 mm 7 m/S 708 mmHg 80%
15:00 -13°C° 0 mm 7 m/S 708 mmHg 81%
16:00 -14°C° 0 mm 6 m/S 709 mmHg 82%
17:00 -15°C° 0 mm 5 m/S 708 mmHg 87%
18:00 -16°C° 0 mm 4 m/S 708 mmHg 91%
19:00 -17°C° 0 mm 3 m/S 708 mmHg 96%
20:00 -18°C° 0 mm 3 m/S 708 mmHg 97%
21:00 -19°C° 0 mm 3 m/S 709 mmHg 97%
22:00 -18°C° 0 mm 2 m/S 709 mmHg 98%
23:00 -18°C° 0 mm 2 m/S 709 mmHg 97%

10 März, Mittwoch

Zeit Temperatur Niederschläge Wind Luftdruck Luftfeuchtigkeit
00:00 -18°C° 0 mm 2 m/S 709 mmHg 97%
01:00 -16°C° 0 mm 1 m/S 709 mmHg 96%
02:00 -16°C° 0 mm 1 m/S 708 mmHg 95%
03:00 -16°C° 0 mm 1 m/S 708 mmHg 93%
04:00 -16°C° 0 mm 1 m/S 708 mmHg 92%
05:00 -16°C° 0 mm 1 m/S 707 mmHg 90%
06:00 -15°C° 0 mm 1 m/S 707 mmHg 89%
07:00 -15°C° 0 mm 1 m/S 706 mmHg 87%
08:00 -16°C° 0.2 mm 2 m/S 706 mmHg 90%
09:00 -16°C° 0.2 mm 3 m/S 705 mmHg 92%
10:00 -15°C° 0.2 mm 4 m/S 704 mmHg 94%
11:00 -14°C° 0.3 mm 5 m/S 704 mmHg 94%
12:00 -12°C° 0.3 mm 5 m/S 703 mmHg 94%
13:00 -11°C° 0.3 mm 5 m/S 702 mmHg 93%
14:00 -10°C° 0.8 mm 6 m/S 702 mmHg 93%
15:00 -8°C° 0.8 mm 6 m/S 701 mmHg 93%
16:00 -7°C° 0.8 mm 7 m/S 701 mmHg 93%
17:00 -9°C° 0.2 mm 6 m/S 700 mmHg 92%
18:00 -11°C° 0.2 mm 6 m/S 700 mmHg 92%
19:00 -13°C° 0.2 mm 5 m/S 700 mmHg 91%
20:00 -15°C° 0 mm 5 m/S 700 mmHg 91%
21:00 -17°C° 0 mm 6 m/S 700 mmHg 91%
22:00 -20°C° 0 mm 6 m/S 700 mmHg 91%
23:00 -20°C° 0 mm 7 m/S 701 mmHg 91%
Mehr zeigen

Wir brauchen deine Erlaubnis

Meteoprog und unser Service Anbieter werden persönliche Daten aufbewahren, so wie Cookies, Geräte Bezeichnung oder ähnliche Technologien von deinem Gerät und Prozess, so wie Persönliche Daten Inhalte und Werbungen, genauso wie social Media und den Verkehr zu analysieren.

  • Aufbewahrung und/oder Zugang zu deiner Geräte Informationen.

    Cookies, Geräte Bezeichnung oder andere Informationen, können aufbewahrt oder Zugang zu deinem Gerät erhalten, für den Grund, der oben angegeben wird.

  • Personalisierte Werbung und Inhalte, Messungen, Einblick in das Publikum und Produkt Entwicklung.

    Werbungen und Inhalte können personalisiert werden, basierend auf ein Profil. Mehr Daten können besser personalisierte Werbungen und Inhalte hinzufügen. Werbung und Inhalte können gezeigt und gemessen werden. Einblicke über das Publikum, welche die Werbung gesehen haben und den Inhalt, können abgeleitet werden. So wie Daten können genutzt werden, um es zu verbessern oder die Benutzer Erfahrung zu verbessern das System und die Software.

Wenn du “Ich stimme zu” klickst, erlaubst du uns, die Cookies zu benutzen die Geräte Bezeichnung, den Web oder ähnliche Technologien zu benutzen. Deine Settings, können in deinem Gerät bei deinem Browser geändert werden.

Für den bestimmten Zweck, berechtigten Interessen beruhen darauf, mehr als auf den Inhalt. Du kannst mehr darüber in unseren Privaten und Cookie Politik lesen.